Date String (YYYY-MM-DD hh:mm:ss) UTC,Instrument flags,absolute air pressure of the measurement (hPa),sample flow rate (lpm),inlet stack bypass flow (lpm),air temperature of the measurement (°C),ambient temperature measured by the external sensor (°C),aerosol sample conditioner tube jacket temperature (°C),OPC LED temperature (°C),internal box temperature (°C),relative humidity of the measurement (%),span deviation,mass concentration of particles derived from Lorenz-Mie calculation of OPC scattering (μg/m³),mass concentration of particles derived from Lorenz-Mie calculation of OPC scattering (μg/m³),mass concentration of particles derived from Lorenz-Mie calculation of OPC scattering (μg/m³)
DateTimeUTC,F1_M11,P_M11,Q1_M11,Q2_M11,T1_M11,T2_M11,T3_M11,T4_M11,T5_M11,U1_M11,ZSPAN_M11,X2_M11,X0_M11,X1_M11
2023-11-11 19:00:00,SystemResetWarning,0830.6,5.01,000.00,025.2,024.2,000.0,033.5,026.6,5.6,0000.0,0002.57,0004.80,0001.83
2023-11-11 19:01:00,SystemResetWarning,0830.6,5.00,000.00,025.3,024.3,000.0,033.5,026.6,5.6,0000.0,0002.58,0004.71,0001.82
2023-11-11 19:02:00,SystemResetWarning,0830.6,5.00,000.00,025.3,024.3,000.0,033.5,026.6,5.5,0000.0,0002.55,0004.38,0001.81
2023-11-11 19:03:00,SystemResetWarning,0830.7,5.01,000.00,025.3,024.3,000.0,033.5,026.6,5.6,0000.0,0002.56,0004.42,0001.78
2023-11-11 19:04:00,SystemResetWarning,0830.7,5.00,000.00,025.3,024.3,000.0,033.5,026.7,5.6,0000.0,0002.52,0004.34,0001.76
2023-11-11 19:05:00,SystemResetWarning,0830.6,5.00,000.00,025.3,024.3,000.0,033.5,026.7,5.6,0000.0,0002.51,0004.32,0001.76
2023-11-11 19:06:00,SystemResetWarning,0830.6,5.00,000.00,025.3,024.3,000.0,033.5,026.7,5.6,0000.0,0002.53,0004.03,0001.77
2023-11-11 19:07:00,SystemResetWarning,0830.6,5.00,000.00,025.3,024.3,000.0,033.5,026.7,5.5,0000.0,0002.45,0003.88,0001.75
2023-11-11 19:08:00,SystemResetWarning,0830.6,5.00,000.00,025.3,024.3,000.0,033.6,026.7,5.6,0000.0,0002.38,0003.77,0001.72
2023-11-11 19:09:00,SystemResetWarning,0830.6,5.00,000.00,025.3,024.3,000.0,033.6,026.7,5.6,0000.0,0002.30,0003.60,0001.70
2023-11-11 19:10:00,SystemResetWarning,0830.5,4.99,000.00,025.3,024.3,000.0,033.6,026.7,5.7,0000.0,0002.28,0003.48,0001.70
2023-11-11 19:11:00,SystemResetWarning,0830.5,5.00,000.00,025.3,024.3,000.0,033.6,026.7,5.6,0000.0,0002.27,0003.47,0001.71
2023-11-11 19:12:00,SystemResetWarning,0830.6,5.00,000.00,025.3,024.3,000.0,033.6,026.7,5.6,0000.0,0002.24,0003.37,0001.71
2023-11-11 19:13:00,SystemResetWarning,0830.6,5.00,000.00,025.3,024.4,000.0,033.6,026.7,5.6,0000.0,0002.23,0003.32,0001.71
2023-11-11 19:14:00,SystemResetWarning,0830.6,5.01,000.00,025.3,024.4,000.0,033.6,026.7,5.6,0000.0,0002.28,0003.34,0001.72
2023-11-11 19:15:00,SystemResetWarning,0830.6,5.01,000.00,025.3,024.4,000.0,033.6,026.8,5.6,0000.0,0002.32,0003.42,0001.74
2023-11-11 19:16:00,SystemResetWarning,0830.6,5.00,000.00,025.4,024.4,000.0,033.6,026.8,5.5,0000.0,0002.32,0003.44,0001.73
2023-11-11 19:17:00,SystemResetWarning,0830.5,4.99,000.00,025.4,024.4,000.0,033.6,026.8,5.6,0000.0,0002.35,0003.51,0001.73
2023-11-11 19:18:00,SystemResetWarning,0830.5,4.99,000.00,025.4,024.5,000.0,033.6,026.8,5.8,0000.0,0002.37,0003.61,0001.73
2023-11-11 19:19:00,SystemResetWarning,0830.5,5.00,000.00,025.4,024.5,000.0,033.6,026.8,5.8,0000.0,0002.45,0004.74,0001.75
2023-11-11 19:20:00,SystemResetWarning,0830.7,5.00,000.00,025.4,024.5,000.0,033.6,026.8,5.8,0000.0,0002.50,0004.87,0001.74
2023-11-11 19:21:00,SystemResetWarning,0830.5,5.01,000.00,025.4,024.5,000.0,033.6,026.9,5.6,0000.0,0002.52,0005.00,0001.74
2023-11-11 19:22:00,SystemResetWarning,0830.4,5.01,000.00,025.4,024.5,000.0,033.7,026.9,5.6,0000.0,0002.53,0005.03,0001.73
2023-11-11 19:23:00,SystemResetWarning,0830.6,5.00,000.00,025.4,024.6,000.0,033.7,026.9,5.7,0000.0,0002.57,0005.19,0001.74
2023-11-11 19:24:00,SystemResetWarning,0830.7,4.99,000.00,025.5,024.6,000.0,033.7,026.9,5.7,0000.0,0002.62,0005.29,0001.74
2023-11-11 19:25:00,SystemResetWarning,0830.4,5.00,000.00,025.5,024.6,000.0,033.7,027.0,5.7,0000.0,0002.56,0005.17,0001.74
2023-11-11 19:26:00,SystemResetWarning,0830.4,5.00,000.00,025.5,024.7,000.0,033.7,027.0,5.8,0000.0,0002.51,0005.11,0001.74
2023-11-11 19:27:00,SystemResetWarning,0830.5,4.99,000.00,025.5,024.7,000.0,033.7,027.0,5.8,0000.0,0002.48,0005.02,0001.74
2023-11-11 19:28:00,SystemResetWarning,0830.4,5.00,000.00,025.5,024.7,000.0,033.7,027.0,5.9,0000.0,0002.44,0005.02,0001.73
2023-11-11 19:29:00,SystemResetWarning,0830.4,5.00,000.00,025.6,024.7,000.0,033.8,027.0,5.9,0000.0,0002.40,0004.90,0001.73
2023-11-11 19:30:00,SystemResetWarning,0830.4,5.00,000.00,025.6,024.7,000.0,033.8,027.1,5.7,0000.0,0002.38,0003.97,0001.72
2023-11-11 19:31:00,SystemResetWarning,0830.6,5.00,000.00,025.6,024.8,000.0,033.8,027.1,5.7,0000.0,0002.36,0003.77,0001.73
2023-11-11 19:32:00,SystemResetWarning,0830.4,5.00,000.00,025.6,024.8,000.0,033.8,027.1,5.7,0000.0,0002.34,0003.64,0001.73
2023-11-11 19:33:00,SystemResetWarning,0830.4,5.00,000.00,025.6,024.8,000.0,033.8,027.1,5.8,0000.0,0002.39,0004.04,0001.74
2023-11-11 19:34:00,SystemResetWarning,0830.3,5.00,000.00,025.6,024.8,000.0,033.8,027.2,5.8,0000.0,0002.38,0004.21,0001.74
2023-11-11 19:35:00,SystemResetWarning,0830.3,5.00,000.00,025.6,024.8,000.0,033.8,027.1,5.8,0000.0,0002.35,0004.13,0001.75
2023-11-11 19:36:00,SystemResetWarning,0830.3,4.99,000.00,025.7,024.8,000.0,033.8,027.2,5.9,0000.0,0002.36,0004.46,0001.75
2023-11-11 19:37:00,SystemResetWarning,0830.2,5.00,000.00,025.7,024.9,000.0,033.9,027.2,6.0,0000.0,0002.37,0005.28,0001.75
2023-11-11 19:38:00,SystemResetWarning,0830.2,5.00,000.00,025.7,024.9,000.0,033.9,027.2,5.9,0000.0,0002.39,0005.38,0001.75
2023-11-11 19:39:00,SystemResetWarning,0830.2,5.00,000.00,025.7,024.9,000.0,033.9,027.3,6.0,0000.0,0002.40,0005.38,0001.76
2023-11-11 19:40:00,SystemResetWarning,0830.3,4.99,000.00,025.7,024.9,000.0,033.9,027.3,5.9,0000.0,0002.42,0005.43,0001.76
2023-11-11 19:41:00,SystemResetWarning,0830.2,5.00,000.00,025.8,025.0,000.0,033.9,027.3,5.9,0000.0,0002.45,0005.57,0001.77
2023-11-11 19:42:00,SystemResetWarning,0830.2,5.00,000.00,025.8,025.0,000.0,033.9,027.3,5.9,0000.0,0002.44,0005.76,0001.77
2023-11-11 19:43:00,SystemResetWarning,0830.3,5.00,000.00,025.8,025.0,000.0,034.0,027.3,5.9,0000.0,0002.46,0005.78,0001.77
2023-11-11 19:44:00,SystemResetWarning,0830.3,5.01,000.00,025.8,025.1,000.0,034.0,027.4,5.8,0000.0,0002.43,0005.78,0001.77
2023-11-11 19:45:00,SystemResetWarning,0830.3,5.00,000.00,025.8,025.1,000.0,034.0,027.4,5.9,0000.0,0002.44,0005.66,0001.77
2023-11-11 19:46:00,SystemResetWarning,0830.3,5.00,000.00,025.9,025.1,000.0,034.0,027.4,5.8,0000.0,0002.47,0005.78,0001.76
2023-11-11 19:47:00,SystemResetWarning,0830.2,4.99,000.00,025.9,025.2,000.0,034.0,027.5,5.9,0000.0,0002.47,0005.71,0001.75
2023-11-11 19:48:00,SystemResetWarning,0830.2,5.00,000.00,025.9,025.2,000.0,034.0,027.5,5.9,0000.0,0002.46,0004.72,0001.75
2023-11-11 19:49:00,SystemResetWarning,0830.2,5.00,000.00,025.9,025.2,000.0,034.1,027.5,5.9,0000.0,0002.44,0004.58,0001.74
2023-11-11 19:50:00,SystemResetWarning,0830.3,5.00,000.00,026.0,025.2,000.0,034.1,027.5,6.0,0000.0,0002.44,0004.54,0001.74
2023-11-11 19:51:00,SystemResetWarning,0830.3,4.99,000.00,026.0,025.3,000.0,034.1,027.6,6.0,0000.0,0002.45,0004.59,0001.74
2023-11-11 19:52:00,SystemResetWarning,0830.2,5.00,000.00,026.0,025.3,000.0,034.1,027.6,6.0,0000.0,0002.44,0004.58,0001.74
2023-11-11 19:53:00,SystemResetWarning,0830.3,5.00,000.00,026.0,025.3,000.0,034.1,027.6,6.0,0000.0,0002.41,0004.29,0001.73
2023-11-11 19:54:00,SystemResetWarning,0830.3,4.99,000.00,026.1,025.3,000.0,034.2,027.6,6.0,0000.0,0002.44,0004.44,0001.73
2023-11-11 19:55:00,SystemResetWarning,0830.3,5.00,000.00,026.1,025.4,000.0,034.2,027.6,6.0,0000.0,0002.45,0004.31,0001.74
2023-11-11 19:56:00,SystemResetWarning,0830.3,5.01,000.00,026.1,025.4,000.0,034.2,027.7,6.0,0000.0,0002.39,0003.95,0001.75
2023-11-11 19:57:00,SystemResetWarning,0830.3,5.00,000.00,026.1,025.4,000.0,034.2,027.7,6.0,0000.0,0002.40,0004.01,0001.76
2023-11-11 19:58:00,SystemResetWarning,0830.3,5.00,000.00,026.1,025.4,000.0,034.3,027.7,5.9,0000.0,0002.42,0003.99,0001.76
2023-11-11 19:59:00,SystemResetWarning,0830.3,5.00,000.00,026.2,025.5,000.0,034.3,027.7,5.9,0000.0,0002.44,0003.99,0001.77
